When you browse on this site, cookies collect data to enhance your experience and personalize the content and advertising you see.
Visit our Privacy Policy to learn more. By continuing to use the site, you agree to this use of cookies and data.
  • In Hungary
  • List of Countries
  • For 7 days
  • Water Temperature
  • Satellite Maps
  • Weather Map
  • News
  • Weather Widgets
  • user-avatar
    Login

    Hourly Weather Burenino

    Today, 17 November, Saturday

    Time Temperature Precipitation Wind Pressure Humidity
    00:00 -3°C° 0 mm 1 mps 771 mmHg 32%
    01:00 -3°C° 0 mm 1 mps 771 mmHg 32%
    02:00 -3°C° 0 mm 1 mps 770 mmHg 32%
    03:00 -3°C° 0 mm 1 mps 770 mmHg 32%
    04:00 -5°C° 0 mm 2 mps 770 mmHg 32%
    05:00 -5°C° 0 mm 2 mps 769 mmHg 31%
    06:00 -6°C° 0 mm 2 mps 769 mmHg 30%
    07:00 -6°C° 0 mm 2 mps 769 mmHg 29%
    08:00 -5°C° 0 mm 2 mps 768 mmHg 27%
    09:00 -4°C° 0 mm 2 mps 768 mmHg 25%
    10:00 -3°C° 0 mm 2 mps 768 mmHg 23%
    11:00 -2°C° 0 mm 3 mps 767 mmHg 22%
    12:00 -1°C° 0 mm 3 mps 766 mmHg 20%
    13:00 0°C° 0 mm 3 mps 766 mmHg 19%
    14:00 -1°C° 0 mm 3 mps 765 mmHg 21%
    15:00 -1°C° 0 mm 3 mps 765 mmHg 23%
    16:00 -1°C° 0 mm 3 mps 764 mmHg 24%
    17:00 -2°C° 0 mm 3 mps 764 mmHg 26%
    18:00 -2°C° 0 mm 3 mps 764 mmHg 27%
    19:00 -4°C° 0 mm 3 mps 763 mmHg 28%
    20:00 -4°C° 0 mm 3 mps 763 mmHg 29%
    21:00 -4°C° 0 mm 3 mps 762 mmHg 30%
    22:00 -4°C° 0 mm 3 mps 762 mmHg 30%
    23:00 -4°C° 0 mm 3 mps 761 mmHg 30%

    Tomorrow, 18 November, Sunday

    Time Temperature Precipitation Wind Pressure Humidity
    00:00 -4°C° 0 mm 3 mps 761 mmHg 30%
    01:00 -4°C° 0 mm 3 mps 761 mmHg 30%
    02:00 -4°C° 0 mm 3 mps 760 mmHg 30%
    03:00 -4°C° 0 mm 3 mps 760 mmHg 29%
    04:00 -4°C° 0 mm 3 mps 760 mmHg 29%
    05:00 -4°C° 0 mm 3 mps 759 mmHg 28%
    06:00 -4°C° 0 mm 3 mps 759 mmHg 28%
    07:00 -4°C° 0 mm 3 mps 759 mmHg 27%
    08:00 -4°C° 0 mm 3 mps 759 mmHg 26%
    09:00 -3°C° 0 mm 4 mps 759 mmHg 25%
    10:00 -3°C° 0 mm 4 mps 759 mmHg 24%
    11:00 -2°C° 0 mm 4 mps 759 mmHg 23%
    12:00 -1°C° 0 mm 4 mps 759 mmHg 23%
    13:00 0°C° 0 mm 4 mps 759 mmHg 22%
    14:00 0°C° 0 mm 3 mps 759 mmHg 24%
    15:00 -1°C° 0 mm 3 mps 759 mmHg 26%
    16:00 -1°C° 0 mm 3 mps 759 mmHg 28%
    17:00 -2°C° 0 mm 3 mps 759 mmHg 29%
    18:00 -2°C° 0 mm 3 mps 759 mmHg 29%
    19:00 -4°C° 0 mm 3 mps 759 mmHg 30%
    20:00 -3°C° 0 mm 2 mps 759 mmHg 30%
    21:00 -3°C° 0 mm 2 mps 759 mmHg 29%
    22:00 -2°C° 0 mm 1 mps 759 mmHg 29%
    23:00 -2°C° 0 mm 1 mps 760 mmHg 29%

    Day after tomorrow, 19 November, Monday

    Time Temperature Precipitation Wind Pressure Humidity
    00:00 -2°C° 0 mm 1 mps 760 mmHg 29%
    01:00 -2°C° 0 mm 1 mps 760 mmHg 29%
    02:00 -2°C° 0 mm 1 mps 760 mmHg 28%
    03:00 -2°C° 0 mm 1 mps 760 mmHg 28%
    04:00 -3°C° 0 mm 0 mps 761 mmHg 28%
    05:00 -4°C° 0 mm 0 mps 761 mmHg 28%
    06:00 -4°C° 0 mm 0 mps 761 mmHg 28%
    07:00 -4°C° 0 mm 0 mps 761 mmHg 28%
    08:00 -3°C° 0 mm 0 mps 762 mmHg 27%
    09:00 -2°C° 0 mm 0 mps 762 mmHg 25%
    10:00 -2°C° 0 mm 0 mps 762 mmHg 24%
    11:00 -1°C° 0 mm 0 mps 763 mmHg 23%
    12:00 0°C° 0 mm 0 mps 763 mmHg 22%
    13:00 +2°C° 0 mm 1 mps 763 mmHg 20%
    14:00 +1°C° 0 mm 1 mps 763 mmHg 22%
    15:00 +1°C° 0 mm 1 mps 763 mmHg 24%
    16:00 0°C° 0 mm 1 mps 764 mmHg 26%
    17:00 0°C° 0 mm 1 mps 764 mmHg 28%
    18:00 -3°C° 0 mm 2 mps 764 mmHg 29%
    19:00 -3°C° 0 mm 2 mps 764 mmHg 30%
    20:00 -4°C° 0 mm 2 mps 764 mmHg 31%
    21:00 -4°C° 0 mm 2 mps 764 mmHg 31%
    22:00 -4°C° 0 mm 2 mps 764 mmHg 32%
    23:00 -4°C° 0 mm 2 mps 765 mmHg 33%

    20 November, Tuesday

    Time Temperature Precipitation Wind Pressure Humidity
    00:00 -4°C° 0 mm 2 mps 765 mmHg 34%
    01:00 -5°C° 0 mm 2 mps 765 mmHg 34%
    02:00 -5°C° 0 mm 2 mps 765 mmHg 36%
    03:00 -5°C° 0 mm 2 mps 765 mmHg 38%
    04:00 -5°C° 0 mm 2 mps 765 mmHg 40%
    05:00 -5°C° 0 mm 2 mps 765 mmHg 44%
    06:00 -5°C° 0 mm 2 mps 765 mmHg 47%
    07:00 -6°C° 0 mm 2 mps 765 mmHg 51%
    08:00 -5°C° 0 mm 2 mps 765 mmHg 52%
    09:00 -4°C° 0 mm 2 mps 765 mmHg 54%
    10:00 -4°C° 0 mm 2 mps 765 mmHg 56%
    11:00 -3°C° 0 mm 2 mps 765 mmHg 57%
    12:00 -2°C° 0 mm 2 mps 765 mmHg 57%
    13:00 +1°C° 0 mm 1 mps 765 mmHg 58%
    14:00 +1°C° 0 mm 1 mps 765 mmHg 61%
    15:00 0°C° 0 mm 1 mps 765 mmHg 65%
    16:00 0°C° 0 mm 1 mps 765 mmHg 68%
    17:00 -1°C° 0 mm 1 mps 765 mmHg 71%
    18:00 -1°C° 0 mm 1 mps 765 mmHg 74%
    19:00 -1°C° 0 mm 1 mps 765 mmHg 77%
    20:00 -3°C° 0 mm 0 mps 765 mmHg 78%
    21:00 -3°C° 0 mm 0 mps 765 mmHg 79%
    22:00 -3°C° 0 mm 0 mps 764 mmHg 81%
    23:00 -3°C° 0 mm 0 mps 764 mmHg 81%

    21 November, Wednesday

    Time Temperature Precipitation Wind Pressure Humidity
    00:00 -3°C° 0 mm 0 mps 764 mmHg 82%
    01:00 -2°C° 0 mm 1 mps 764 mmHg 82%
    02:00 -2°C° 0 mm 1 mps 764 mmHg 83%
    03:00 -2°C° 0 mm 1 mps 764 mmHg 83%
    04:00 -2°C° 0 mm 1 mps 763 mmHg 84%
    05:00 -2°C° 0 mm 1 mps 763 mmHg 82%
    06:00 -2°C° 0 mm 1 mps 763 mmHg 81%
    07:00 -2°C° 0 mm 1 mps 762 mmHg 79%
    08:00 -2°C° 0 mm 1 mps 762 mmHg 76%
    09:00 -1°C° 0 mm 1 mps 762 mmHg 73%
    10:00 -1°C° 0 mm 1 mps 762 mmHg 71%
    11:00 0°C° 0 mm 1 mps 762 mmHg 67%
    12:00 0°C° 0 mm 1 mps 762 mmHg 64%
    13:00 -1°C° 0 mm 2 mps 761 mmHg 61%
    14:00 0°C° 0 mm 1 mps 761 mmHg 62%
    15:00 0°C° 0 mm 1 mps 760 mmHg 63%
    16:00 0°C° 0 mm 1 mps 760 mmHg 64%
    17:00 0°C° 0 mm 1 mps 760 mmHg 65%
    18:00 0°C° 0 mm 1 mps 759 mmHg 66%
    19:00 -1°C° 0 mm 1 mps 759 mmHg 68%
    20:00 -1°C° 0 mm 1 mps 759 mmHg 68%
    21:00 -1°C° 0 mm 1 mps 758 mmHg 68%
    22:00 -2°C° 0 mm 0 mps 758 mmHg 68%
    23:00 -2°C° 0 mm 0 mps 758 mmHg 67%

    22 November, Thursday

    Time Temperature Precipitation Wind Pressure Humidity
    00:00 -2°C° 0 mm 0 mps 757 mmHg 66%
    01:00 -2°C° 0 mm 0 mps 757 mmHg 66%
    02:00 -2°C° 0 mm 0 mps 757 mmHg 67%
    03:00 -2°C° 0 mm 0 mps 756 mmHg 69%
    04:00 -2°C° 0 mm 0 mps 756 mmHg 71%
    05:00 -2°C° 0 mm 0 mps 756 mmHg 72%
    06:00 -2°C° 0 mm 0 mps 756 mmHg 74%
    07:00 -2°C° 0 mm 1 mps 755 mmHg 76%
    08:00 -1°C° 0 mm 1 mps 755 mmHg 74%
    09:00 -1°C° 0 mm 1 mps 755 mmHg 73%
    10:00 -1°C° 0 mm 1 mps 755 mmHg 71%
    11:00 -2°C° 0 mm 2 mps 755 mmHg 68%
    12:00 -2°C° 0 mm 2 mps 755 mmHg 65%
    13:00 -1°C° 0 mm 3 mps 755 mmHg 62%
    14:00 -2°C° 0 mm 3 mps 754 mmHg 65%
    15:00 -2°C° 0 mm 3 mps 754 mmHg 69%
    16:00 -4°C° 0 mm 3 mps 754 mmHg 72%
    17:00 -4°C° 0 mm 3 mps 754 mmHg 73%
    18:00 -5°C° 0 mm 4 mps 754 mmHg 73%
    19:00 -5°C° 0 mm 4 mps 755 mmHg 74%
    20:00 -7°C° 0 mm 4 mps 755 mmHg 73%
    21:00 -6°C° 0 mm 3 mps 755 mmHg 73%
    22:00 -7°C° 0 mm 3 mps 755 mmHg 72%
    23:00 -7°C° 0 mm 3 mps 755 mmHg 73%
    Show more